Location: Chillicothe
(39.7950°N, 93.5520°W)
Time: 07:30:08
(UTC-05:00)

A-11 Canister half - Visible Passes

Search period start: 17 October 2019 00:00
Search period end: 27 October 2019 00:00
Orbit: 1527 x 1682 km, 47.3° (Epoch: 15 October)

Date Brightness Start Highest point End Pass type
(mag) Time Alt. Az. Time Alt. Az. Time Alt. Az.
17 Oct 9.3 04:03:23 54° SE 04:03:23 54° SE 04:10:20 10° SE visible
17 Oct 9.8 06:01:45 22° WSW 06:04:48 26° SW 06:12:16 10° S visible
17 Oct 10.1 19:12:14 10° SSE 19:18:28 20° SE 19:23:36 12° E visible
17 Oct 8.8 21:12:52 10° SW 21:21:56 67° SSE 21:21:56 67° SSE visible
17 Oct 10.7 23:18:10 10° W 23:20:17 19° W 23:20:17 19° W visible
18 Oct 9.9 03:43:48 36° SE 03:43:48 36° SE 03:48:43 10° SE visible
18 Oct 9.7 05:42:10 27° WSW 05:43:14 28° SW 05:50:54 10° S visible
18 Oct 10.2 18:51:01 10° SSE 18:56:56 18° SE 19:02:46 10° E visible
18 Oct 8.8 20:51:17 10° SW 21:00:37 65° SE 21:01:59 59° ESE visible
18 Oct 10.3 22:56:28 10° W 23:00:19 28° W 23:00:19 28° W visible
19 Oct 10.5 03:24:13 23° SE 03:24:13 23° SE 03:27:04 10° SE visible
19 Oct 9.7 05:22:36 29° SW 05:22:36 29° SW 05:29:31 10° S visible
19 Oct 8.9 20:29:43 10° SW 20:39:00 62° SE 20:41:57 45° E visible
19 Oct 9.9 22:34:47 10° W 22:40:17 39° W 22:40:17 39° W visible
20 Oct 10.9 03:04:40 13° ESE 03:04:40 13° ESE 03:05:26 10° ESE visible
20 Oct 10.0 05:03:02 26° SSW 05:03:02 26° SSW 05:08:06 10° S visible
20 Oct 9.0 20:08:09 10° SW 20:17:25 60° SE 20:21:50 33° ENE visible
20 Oct 9.5 22:13:06 10° W 22:20:09 52° WNW 22:20:09 52° WNW visible
21 Oct 10.3 04:43:28 21° S 04:43:28 21° S 04:46:42 10° S visible
21 Oct 9.1 19:46:35 10° SW 19:55:50 57° SE 20:01:38 24° ENE visible
21 Oct 9.1 21:51:24 10° WSW 21:59:57 65° NW 21:59:57 65° NW visible
21 Oct 11.1 23:57:47 10° WNW 23:58:16 12° WNW 23:58:16 12° WNW visible
22 Oct 10.7 04:23:52 15° S 04:23:52 15° S 04:25:15 10° SSE visible
22 Oct 9.2 19:25:03 10° SSW 19:34:14 54° SE 19:41:22 18° ENE visible
22 Oct 9.0 21:29:43 10° WSW 21:39:09 69° NNW 21:39:41 68° N visible
22 Oct 10.8 23:36:06 10° WNW 23:38:00 17° WNW 23:38:00 17° WNW visible
23 Oct 9.3 19:03:30 10° SSW 19:12:39 52° SE 19:21:03 12° ENE visible
23 Oct 9.0 21:08:02 10° WSW 21:17:30 71° NNW 21:19:21 58° NNE visible
23 Oct 10.5 23:14:25 10° WNW 23:17:39 24° WNW 23:17:39 24° WNW visible
24 Oct 9.4 18:41:58 10° SSW 18:51:04 49° SE 18:59:56 10° ENE visible
24 Oct 9.0 20:46:20 10° WSW 20:55:51 73° NNW 20:58:58 47° NE visible
24 Oct 10.2 22:52:43 10° WNW 22:57:16 31° WNW 22:57:16 31° WNW visible
25 Oct 9.0 20:24:40 10° WSW 20:34:12 75° NNW 20:38:33 37° NE visible
25 Oct 9.9 22:31:02 10° WNW 22:36:50 39° NW 22:36:50 39° NW visible
26 Oct 9.0 20:02:59 10° WSW 20:12:33 77° NNW 20:18:05 29° ENE visible
26 Oct 9.6 22:09:20 10° WNW 22:16:22 46° NW 22:16:22 46° NW visible
